Change the Weather History Date:

Wednesday, December 5, 2012

  Actual Average Record
Temperature  
Mean Temperature 47 °F -  
Max Temperature 60 °F 45 °F 72 °F (2001)
Min Temperature 34 °F 29 °F 14 °F (2005)
Degree Days  
Heating Degree Days 18    
Moisture  
Dew Point 30 °F    
Average Humidity 52    
Maximum Humidity 85    
Minimum Humidity 30    
Precipitation  
Precipitation 0.00 in - - ()
Sea Level Pressure  
Sea Level Pressure 30.21 in    
Wind  
Wind Speed 3 mph (SSE)    
Max Wind Speed 12 mph    
Max Gust Speed 16 mph    
Visibility 10 miles    
Events      
Averages and records for this station are not official NWS values.
T = Trace of Precipitation, MM = Missing Value Source: NWS Daily Summary

Daily Weather History Graph

Daily Weather History Graph

Search for Another Location

Airport or City:

Trip Planner

Search our weather history database for the weather conditions in past years. The results will help you decide how hot, cold, wet, or windy it might be!

Date:

Astronomy

Dec. 05, 2012 Rise Set
Actual Time 7:22 AM CST 4:55 PM CST
Civil Twilight 6:53 AM CST 5:25 PM CST
Nautical Twilight 6:19 AM CST 5:58 PM CST
Astronomical Twilight 5:47 AM CST 6:31 PM CST
Moon 11:43 PM CST (12/5) 11:48 AM CST (12/5)
Length of Visible Light 10h 32m
Length of Day
9h 32m
Waning Gibbous, 59% of the Moon is Illuminated
Dec 5
Waning Gibbous
Dec 6
Last Quarter
Dec 13
New
Dec 19
First Quarter
Dec 28
Full

Hourly Weather History & Observations

Time (CST) Temp. Windchill Dew Point Humidity Pressure Visibility Wind Dir Wind Speed Gust Speed Precip Events Conditions
12:54 AM 41.0 °F - 30.0 °F 65% 30.33 in 10.0 mi Calm Calm - N/A   Clear
1:54 AM 41.0 °F - 30.0 °F 65% 30.33 in 10.0 mi Calm Calm - N/A   Clear
2:54 AM 37.9 °F - 30.0 °F 73% 30.33 in 10.0 mi Calm Calm - N/A   Clear
3:54 AM 37.0 °F - 30.9 °F 79% 30.32 in 10.0 mi Calm Calm - N/A   Clear
4:54 AM 35.1 °F - 30.9 °F 85% 30.32 in 10.0 mi Calm Calm - N/A   Clear
5:54 AM 36.0 °F - 30.9 °F 82% 30.32 in 10.0 mi Calm Calm - N/A   Clear
6:54 AM 34.0 °F 28.8 °F 28.0 °F 79% 30.34 in 10.0 mi ENE 5.8 mph - N/A   Clear
8:54 AM 41.0 °F 39.0 °F 32.0 °F 70% 30.33 in 7.0 mi East 3.5 mph - N/A   Clear
9:54 AM 46.0 °F - 30.9 °F 56% 30.32 in 9.0 mi Calm Calm - N/A   Clear
10:54 AM 51.1 °F - 32.0 °F 48% 30.30 in 10.0 mi ENE 3.5 mph - N/A   Clear
11:54 AM 57.0 °F - 30.0 °F 36% 30.27 in 10.0 mi SSE 4.6 mph - N/A   Clear
12:54 PM 59.0 °F - 28.0 °F 31% 30.23 in 10.0 mi South 10.4 mph - N/A   Clear
1:54 PM 59.0 °F - 28.0 °F 31% 30.20 in 10.0 mi South 9.2 mph - N/A   Clear
2:54 PM 60.1 °F - 28.0 °F 30% 30.16 in 10.0 mi South 6.9 mph - N/A   Clear
3:54 PM 57.9 °F - 28.9 °F 33% 30.14 in 10.0 mi South 11.5 mph 16.1 mph N/A   Clear
4:54 PM 54.0 °F - 30.0 °F 40% 30.13 in 10.0 mi South 8.1 mph - N/A   Clear
5:54 PM 55.0 °F - 30.0 °F 38% 30.12 in 10.0 mi SE 4.6 mph - N/A   Clear
6:54 PM 54.0 °F - 28.9 °F 38% 30.10 in 10.0 mi SSE 6.9 mph - N/A   Clear
7:54 PM 51.1 °F - 30.0 °F 44% 30.08 in 10.0 mi SSE 4.6 mph - N/A   Clear
8:54 PM 51.1 °F - 30.0 °F 44% 30.07 in 10.0 mi SSE 6.9 mph - N/A   Clear
9:54 PM 50.0 °F - 28.9 °F 44% 30.06 in 10.0 mi Variable 4.6 mph - N/A   Clear
10:54 PM 50.0 °F - 28.9 °F 44% 30.05 in 10.0 mi South 10.4 mph - N/A   Clear
11:54 PM 50.0 °F - 30.0 °F 46% 30.03 in 10.0 mi South 10.4 mph - N/A   Clear